Powrót do katalogu

IRIDIUM 149

AktywnyŁącznośćPO
NORAD 43250·PAYLOAD·🇺🇸 United States

Wystrzelony Mar 30, 2018 z Vandenberg Space Force Base

Loading…

Następne Przeloty (najbliższe 24 godziny)

TLE

ŚwieżeSource: CelesTrak SupGP

Epoka: Sep 14, 2026, 21:12 UTC

1 43250C 18030B   26257.88368056  .00003231  00000+0  11552-2 0  2573
2 43250  86.3912 252.8446 0002452  90.5240 239.6813 14.34214884    11

Śledź IRIDIUM 149 w czasie rzeczywistym z AllMySat

Download on the App Store